Regional Weather Roundup
Issued by NWS

Home | Current Version | Previous Version | Text Only | Print | Product List | Glossary On
Versions: 1 2 3 4 5 6 7 8 9 10 11 12 13 14 15 16 17 18 19 20 21 22 23 24 25 26 27 28 29 30 31 32 33 34 35 36 37 38 39 40 41 42 43 44 45 46 47 48 49 50
000
ASUS43 KMPX 181301
RWRMN
WEATHER ROUNDUP FOR MINNESOTA
NATIONAL WEATHER SERVICE TWIN CITIES/CHANHASSEN MN
700 AM CST SAT NOV 18 2017


NOTE: "FAIR" INDICATES FEW OR NO CLOUDS BELOW 12,000 FEET WITH NO
SIGNIFICANT WEATHER AND/OR OBSTRUCTIONS TO VISIBILITY. N/A MEANS
CURRENT SKY AND/OR WEATHER CONDITIONS ARE NOT AVAILABLE.

MNZ060>063-068>070-181400-
   Twin Cities Metro

CITY           SKY/WX    TMP DP  RH WIND       PRES   REMARKS
TWIN CITIES    CLOUDY    33  30  88 NW13      29.77R WCI  24
ST PAUL        CLOUDY    33  30  88 NW13      29.78R WCI  24
CRYSTAL        CLOUDY    32  26  78 NW12      29.77R WCI  23
BLAINE         MOCLDY    34  32  93 NW12      29.77R WCI  25
LAKEVILLE      CLOUDY    32  32 100 NW12      29.76R WCI  23
EDEN PRAIRIE   CLOUDY    33  29  85 NW12      29.76R WCI  24
SOUTH ST PAUL  CLOUDY    34  32  92 N13       29.76R WCI  25
$$
MNZ001>005-007-008-013>017-022>024-027-028-181400-
   Northwest Minnesota

CITY           SKY/WX    TMP DP  RH WIND       PRES   REMARKS
BEMIDJI        CLOUDY    16  13  89 NW7       29.83R WCI   6
HALLOCK        PTCLDY    16  10  79 NW9       29.92R WCI   4
ROSEAU         CLOUDY    16  10  79 NW7       29.86R WCI   6
WARROAD        CLOUDY    14  10  85 W5        29.85R WCI   6
CROOKSTON      MOCLDY    18  12  79 NW15      29.93R WCI   3
FOSSTON        PTCLDY    14  10  85 W7        29.87R WCI   4
DETROIT LAKES  CLEAR     19  18  93 NW9       29.88R WCI   9
MOORHEAD       PTCLDY    18  12  79 CALM      29.93R
PARK RAPIDS    MOCLDY    19  14  81 NW10      29.82R WCI   7
MAHNOMEN       CLOUDY    18  13  82 NW8       29.87S WCI   7
$$
MNZ006-009>011-018-025>026-181400-
   North Central Minnesota

CITY           SKY/WX    TMP DP  RH WIND       PRES   REMARKS
BAUDETTE       CLOUDY    15  12  88 W9        29.82R WCI   3
FLAG ISLAND    LGT SNOW  14  10  85 W6        29.82S WCI   5
INTL FALLS     CLOUDY    15  11  83 W5        29.81R FOG     WCI   8
WASKISH        CLOUDY    18  12  79 NW7       29.83S WCI   8
BIG FORK       MOCLDY    16  12  86 CALM      29.81R
LONGVILLE      CLEAR     19  18  93 NW6       29.82R WCI  11
GRAND RAPIDS   CLEAR     18  15  88 NW10      29.80R WCI   6
CRANE LAKE     MOCLDY    16  16 100 CALM      29.80R
ORR            MOCLDY    16  12  86 NW5       29.75S WCI   9
COOK           CLOUDY    16  16 100 NW5       29.78R WCI   9
WALKER         FAIR      15  12  89 W3        29.83R
$$
MNZ012-019>021-037-181400-
   Northeast Minnesota

CITY           SKY/WX    TMP DP  RH WIND       PRES   REMARKS
DULUTH         CLOUDY    24  22  91 NW7       29.71S WCI  16
ELY            CLOUDY    23  21  93 CALM      29.72F
HIBBING        CLEAR     16  14  92 NW5       29.77R WCI   9
EVELETH        CLEAR     19  16  86 NW7       29.76R WCI  10
DULUTH HARBOR  PTCLDY    30  25  80 NW10      29.77S WCI  21
TWO HARBORS    CLOUDY    30  27  86 CALM      29.71S
SILVER BAY     CLOUDY    28  27  93 N6        29.70R WCI  22
GRAND MARAIS     N/A     32  26  78 VRB7      29.72R WCI  26
G MARAIS ARPRT CLOUDY    25  19  80 NW13G20   29.66R WCI  13
$$
MNZ029>031-032-039>041-046>048-054>057-064-181400-
   West Central Minnesota

CITY           SKY/WX    TMP DP  RH WIND       PRES   REMARKS
FERGUS FALLS   CLOUDY    19  16  86 NW8       29.92R WCI   9
WHEATON        PTCLDY    19  16  86 NW10      29.94R WCI   8
MORRIS         CLEAR     19  18  93 NW16      29.87R WCI   5
ALEXANDRIA     CLEAR     21  17  84 NW9       29.84R WCI  11
ELBOW LAKE     CLOUDY    19  17  91 W12       29.90R WCI   6
WADENA         PTCLDY    18  16  93 NW8       29.84R WCI   7
GLENWOOD       CLEAR     21  19  93 NW14      29.84R WCI   8
APPLETON       CLEAR     21  18  86 NW10      29.89R WCI  10
BENSON         CLEAR     19  16  86 N9        29.87R WCI   9
ORTONVILLE     PTCLDY    21  18  86 MISG      29.89R
MADISON        CLOUDY    25  21  86 NW12      29.89R WCI  14
WILLMAR        FAIR      25  21  86 NW9       29.84R WCI  15
$$
MNZ033>034-036-042>043-049>051-058-059-181400-
   Central Minnesota

CITY           SKY/WX    TMP DP  RH WIND       PRES   REMARKS
ST CLOUD       PTCLDY    27  23  85 NW8       29.79R WCI  19
SAUK CENTRE    FAIR      23  19  87 NW13      29.82R WCI  11
PAYNESVILLE    PTCLDY    26  25  94 NW6       29.82R WCI  20
AITKIN         CLEAR     19  16  86 NW5       29.80R WCI  13
PINE RIVER     CLEAR     19  16  86 NW5       29.86R WCI  13
BRAINERD       CLEAR     24  18  77 NW9       29.82R WCI  14
STAPLES        CLEAR     18  16  93 NW8       29.84R WCI   7
LONG PRAIRIE   FAIR      21  19  93 W7        29.81R WCI  13
LITTLE FALLS   CLEAR     27  18  69 CALM      29.82R
LITCHFIELD     MOCLDY    28  27  93 NW7       29.81R WCI  21
BUFFALO        PTCLDY    30  26  84 NW8       29.80R WCI  22
MAPLE LAKE     CLOUDY    30  26  87 NW7       29.80R WCI  23
HUTCHINSON     PTCLDY    30  27  89 NW9       29.81R WCI  22
$$
MNZ037-044-045-052-053-181400-
   East Central Minnesota

CITY           SKY/WX    TMP DP  RH WIND       PRES   REMARKS
PRINCETON      MOCLDY    28  25  86 CALM      29.78S
MORA           CLOUDY    27  23  86 NW8       29.79S WCI  18
CAMBRIDGE      CLOUDY    30  23  74 NW6       29.78R WCI  24
RUSH CITY      PTCLDY    29  25  85 NW7       29.77R WCI  22
MOOSE LAKE     CLOUDY    27  21  80 NW6       29.75S WCI  20
HINCKLEY       FAIR      28  27  93 N7        29.77R WCI  21
CLOQUET        CLOUDY    23  19  86 NW7       29.75R WCI  15
MCGREGOR       CLEAR     23  19  86 NW6       29.80R WCI  16
$$
MNZ071>073-080-081-089-090-097-098-181400-
   Southwest Minnesota

CITY           SKY/WX    TMP DP  RH WIND       PRES   REMARKS
MONTEVIDEO     PTCLDY    21  18  86 N9        29.87R WCI  11
GRANITE FALLS  PTCLDY    25  20  83 NW10      29.88R WCI  15
CANBY          CLOUDY    24  20  86 W12       29.90R WCI  13
MARSHALL       PTCLDY    23  19  85 NW9       29.87R WCI  13
REDWOOD FALLS  CLOUDY    25  19  78 NW12      29.83R WCI  14
OLIVIA         PTCLDY    27  21  80 NW10      29.83R WCI  17
PIPESTONE      CLOUDY    27  21  80 CALM      29.83R
WINDOM           N/A     27  14  59 NW20G25   29.81R WCI  13
WORTHINGTON    PTCLDY    27  21  78 NW17      29.82R WCI  14
JACKSON        CLOUDY    28  23  80 NW16      29.80R WCI  17
SLAYTON        CLOUDY    26  21  81 NW16      29.84R WCI  13
$$
MNZ065>067-074>077-082>085-091>093-181400-
   South Central Minnesota

CITY           SKY/WX    TMP DP  RH WIND       PRES   REMARKS
MANKATO        CLOUDY    31  29  92 NW14      29.79R WCI  21
NEW ULM        CLOUDY    27  23  86 CALM      29.81R
ST JAMES       CLOUDY    27  25  93 NW14      29.82R WCI  15
FAIRMONT       MOCLDY    29  25  85 NW17G23   29.79R WCI  17
GLENCOE        CLOUDY    32  32 100 NW10      29.79R WCI  24
FARIBAULT      CLOUDY    34  32  93 NW9       29.76R WCI  26
OWATONNA       CLOUDY    34  34 100 NW13      29.75R FOG     WCI  25
WASECA         CLOUDY    32  32 100 NW16G22   29.78R WCI  21
ALBERT LEA     CLOUDY    34  34 100 N12       29.72R FOG     WCI  25
$$
MNZ078>079-086>088-094>096-181400-
   Southeast Minnesota

CITY           SKY/WX    TMP DP  RH WIND       PRES   REMARKS
ROCHESTER      CLOUDY    33  32  96 N20       29.70R WCI  21
RED WING       CLOUDY    36  30  80 N6        29.73S
STANTON        CLOUDY    35  32  89 NW9       29.74R WCI  28
DODGE CENTER   CLOUDY    34  32  93 N14       29.71R FOG     WCI  24
WINONA         CLOUDY    36  34  93 NW6       29.70R
AUSTIN         CLOUDY    34  32  93 N12G20    29.71R FOG     WCI  25
PRESTON        CLOUDY    33  32  96 N13G18    29.68R FOG     WCI  24
$$
ABBREVIATIONS USED IN REMARKS
   TC - TEMPERATURES IN CELSIUS
  WCI - WIND CHILL INDEX
   HX - HEAT INDEX
  VSB - VISIBILITY
$$



USA.gov is the U.S. government's official web portal to all federal, state and local government web resources and services.